Theta_e
301 301 301 301 300 300 301 300 301 302 302 304 303 302 301 302 302 299 299 298 298 301 298 297 298 299 299 300 301 298 298 298 299 300 300 301 302 301 301 300 300 301 303 303 304 305 304 302 303 301 305 306 306 305
301 300 300 300 301 301 301 301 301 301 300 300 303 303 302 304 302 300 299 298 297 299 299 297 297 298 298 298 299 298 299 299 299 300 298 299 300 300 299 300 301 304 302 303 304 302 303 304 303 303 303 304 304 303
297 297 299 299 298 298 299 299 300 300 299 299 300 302 302 303 302 300 299 299 298 300 299 298 299 298 297 297 297 299 298 297 297 298 299 300 300 301 302 301 301 301 301 303 302 302 302 303 303 304 303 303 302 302
296 296 297 296 296 296 297 297 297 298 298 298 298 299 300 302 302 301 300 299 298 298 299 299 298 298 298 297 297 297 297 297 297 298 299 299 299 301 301 301 300 300 300 301 303 302 302 302 303 303 303 303 304 304
296 296 296 296 295 296 296 295 295 296 296 296 297 298 299 299 299 301 301 299 299 299 300 299 297 297 298 298 298 297 296 297 298 298 298 298 298 300 300 301 300 300 300 301 303 302 302 302 303 303 303 302 303 304
295 295 295 295 295 295 295 295 295 295 295 295 296 297 298 298 299 297 293 296 299 298 297 299 297 296 296 296 296 296 297 297 298 298 297 297 297 300 301 300 299 299 299 299 299 300 300 301 302 302 302 302 302 301
295 295 295 295 295 295 295 295 294 295 295 296 296 296 297 297 298 296 298 297 296 295 296 298 298 296 295 295 296 297 296 297 297 298 298 298 299 300 300 299 298 298 299 299 299 299 299 300 301 302 302 300 300 300
294 294 294 294 294 295 295 294 295 295 296 296 296 296 297 297 298 296 296 295 294 293 295 297 297 295 295 298 298 297 297 298 298 298 299 299 299 299 300 298 298 298 299 299 300 301 300 299 299 299 300 300 299 300
293 294 294 294 294 294 295 295 296 295 295 296 296 296 295 295 293 294 295 294 295 296 297 297 297 296 295 297 298 298 298 299 299 300 299 299 300 300 299 299 298 298 299 300 302 303 303 302 301 301 300 300 300 300
294 294 294 294 294 294 295 295 295 295 296 297 296 296 296 293 296 295 294 295 295 296 296 297 295 297 297 298 298 299 299 299 299 299 298 300 299 299 298 298 298 298 300 301 302 303 302 304 304 303 302 301 301 301
293 293 293 293 294 294 295 295 295 296 296 293 296 296 294 294 293 295 296 297 296 295 296 295 294 296 296 298 298 299 300 300 300 299 299 299 298 299 299 299 299 301 302 302 303 302 301 302 304 304 304 303 302 302
293 293 293 293 294 294 294 294 295 295 293 294 294 292 292 295 295 295 295 296 295 295 296 295 295 295 296 296 296 298 298 298 298 299 299 298 297 298 299 299 301 302 301 300 300 300 301 301 303 303 304 304 304 304
293 293 293 293 294 292 293 296 296 294 294 294 294 294 295 294 295 294 294 296 296 296 296 296 296 296 296 297 297 298 298 299 298 298 298 297 298 298 298 300 301 300 299 299 299 300 299 299 301 302 302 303 304 303
292 293 293 293 292 294 295 295 295 294 294 295 293 293 294 293 294 295 295 295 296 297 298 297 296 297 297 297 298 298 298 298 298 297 296 297 297 298 299 300 300 299 299 299 300 300 300 300 301 302 301 301 303 303
292 293 293 292 292 292 291 293 292 292 293 294 295 294 293 294 294 295 295 296 296 297 297 297 297 297 296 297 297 297 298 297 297 296 296 297 300 300 300 298 298 298 298 299 299 299 299 300 300 300 300 300 302 303
292 292 293 292 292 292 291 292 292 293 292 293 293 294 293 294 293 293 295 297 297 297 298 297 296 297 297 296 297 297 296 295 295 296 297 300 300 299 298 297 296 297 297 298 299 298 298 297 298 298 298 298 302 301
292 293 292 293 292 292 292 291 291 291 292 294 295 293 294 294 295 296 294 295 297 298 298 298 296 296 297 297 296 296 295 296 296 296 299 299 298 297 296 296 297 297 298 298 298 298 297 297 297 298 298 300 301 301
292 293 292 292 291 291 291 291 292 292 293 293 295 293 294 294 295 294 294 295 295 296 297 297 297 297 297 296 296 296 297 299 298 298 299 298 296 295 295 297 297 297 297 297 297 297 297 297 299 300 300 298 300 301
292 292 292 292 292 291 292 291 291 293 293 293 293 293 293 294 294 295 296 295 296 296 297 297 297 296 295 296 297 297 297 296 296 296 296 296 295 295 296 297 297 297 297 297 297 297 297 297 299 300 301 301 301 301
293 292 292 292 291 292 292 291 290 293 294 293 292 292 293 294 294 294 295 296 295 296 296 297 296 295 295 296 296 295 295 295 295 295 295 296 296 297 298 298 298 298 297 297 296 296 299 300 299 299 299 300 300 301
292 292 292 292 291 290 292 290 290 293 292 292 292 292 293 293 293 294 294 295 295 295 295 296 298 297 296 296 295 295 295 295 295 295 295 295 296 296 297 298 298 297 297 298 298 299 299 300 299 299 299 299 300 300
292 292 291 291 291 290 292 291 293 292 293 292 292 292 293 294 294 294 294 294 294 294 295 295 295 295 295 295 294 294 294 294 294 294 294 294 295 296 298 298 298 298 298 299 299 299 299 299 297 297 296 297 299 299
292 291 290 289 290 290 290 290 292 292 292 291 290 292 293 294 294 293 294 294 294 294 294 294 294 294 294 294 294 293 293 293 294 294 295 295 295 296 298 297 297 298 299 299 298 298 298 297 297 296 296 296 297 298
291 291 291 290 291 291 290 291 292 291 291 290 291 292 293 294 293 294 294 293 294 294 294 294 294 294 294 294 294 294 294 294 295 295 296 296 297 298 297 297 298 298 298 298 297 297 296 297 297 296 296 296 297 297
292 289 290 289 289 290 290 290 290 290 290 291 291 291 293 293 294 293 293 293 293 293 294 294 294 294 293 293 294 296 296 295 296 297 298 298 297 297 297 298 299 298 298 297 297 296 296 297 296 296 296 296 297 297
290 287 290 290 290 290 291 290 289 290 291 291 291 291 292 293 293 293 292 293 293 293 293 295 296 297 297 297 297 297 297 297 297 298 297 297 297 297 297 298 299 298 297 295 296 296 295 296 296 296 296 296 298 298
289 289 289 288 290 290 291 290 291 292 292 291 292 293 293 292 293 292 293 294 294 295 294 295 295 296 297 298 297 296 296 295 295 296 296 296 295 295 295 297 298 296 294 294 295 295 295 295 296 296 296 296 297 297
290 290 290 289 290 291 290 292 292 292 292 292 293 293 292 292 292 294 296 295 294 294 294 295 294 295 295 295 295 295 295 295 294 295 294 294 293 294 294 293 293 292 293 294 294 294 295 295 295 296 296 296 296 296
291 290 290 288 291 291 291 291 292 292 293 293 293 293 293 294 294 295 293 292 292 292 294 294 294 293 293 293 292 292 292 292 294 295 295 295 295 294 291 291 291 292 292 292 292 293 294 295 296 296 295 295 295 295
291 291 291 290 290 291 292 292 292 293 293 293 294 294 294 294 292 290 290 290 292 292 292 291 290 291 291 291 291 291 291 290 291 291 292 292 291 290 290 290 291 291 291 292 292 293 294 295 294 295 295 295 295 295
291 291 292 292 293 293 292 293 292 293 293 293 293 293 293 294 291 289 288 288 289 290 291 290 290 289 289 289 290 291 291 290 290 288 288 289 289 290 290 291 291 291 292 292 292 293 293 294 293 295 295 295 295 295
292 292 293 294 294 292 291 292 293 293 293 292 293 292 292 293 294 291 287 287 289 289 288 287 288 287 286 286 287 289 289 288 287 287 287 288 289 290 291 292 291 291 291 291 292 292 293 294 294 296 295 295 294 294
291 292 292 292 293 293 291 292 292 292 292 292 292 292 292 292 293 290 286 286 286 286 286 286 285 285 285 285 286 286 287 286 286 287 288 289 290 290 291 290 290 290 290 291 292 292 294 295 295 296 295 294 294 294
Wind_Speed
11 11 10 9 7 7 6 8 8 11 5 17 32 34 38 37 34 29 16 18 9 2 3 9 10 8 9 9 4 9 5 6 4 5 4 7 6 6 7 14 14 13 6 5 4 7 13 11 7 8 5 6 7 3
13 10 8 8 7 7 6 6 5 6 10 19 24 38 40 39 37 32 15 17 17 4 2 10 18 17 14 6 5 4 4 8 5 4 4 4 9 10 15 15 1 3 6 7 5 5 6 12 11 12 7 5 4 3
14 13 10 9 8 8 6 6 7 8 8 11 10 8 10 33 40 38 23 20 17 3 4 6 11 21 20 20 13 5 5 6 4 6 3 3 7 5 8 10 13 11 13 10 13 12 14 11 15 16 8 7 4 2
10 9 11 11 10 10 10 9 10 9 9 8 9 10 16 19 37 42 29 26 24 5 3 5 14 25 23 22 22 22 15 9 6 2 3 4 5 4 8 12 12 11 14 14 16 17 16 13 12 15 10 11 12 9
10 11 11 12 12 12 11 12 11 12 12 12 11 10 10 13 21 28 30 30 33 12 4 5 8 12 17 21 23 23 23 14 6 4 5 7 8 9 11 13 13 12 13 11 11 13 9 12 8 11 10 10 10 12
11 11 12 13 14 15 16 16 16 16 17 18 16 15 14 13 15 9 2 14 30 24 3 3 1 6 17 14 16 19 19 11 6 5 6 7 17 6 5 9 16 15 12 12 14 17 18 17 16 16 12 10 10 10
13 14 16 17 18 18 19 19 20 20 22 20 20 19 18 16 22 5 3 6 34 22 3 3 3 5 12 10 12 9 13 6 4 3 7 11 7 6 6 14 23 16 14 15 16 16 16 15 12 13 12 11 10 12
17 18 18 20 20 21 22 23 23 23 22 23 22 21 20 16 11 10 10 25 31 9 3 4 3 5 15 6 5 3 4 6 6 5 5 9 5 5 6 15 14 14 12 13 13 13 15 17 17 16 14 14 16 15
19 20 19 19 20 23 24 25 22 24 29 28 28 22 7 6 2 3 24 31 17 4 5 3 7 5 7 6 4 5 4 5 5 6 6 5 5 8 13 13 13 15 14 14 13 15 16 18 18 16 16 17 17 17
15 17 18 20 22 25 25 23 28 31 30 20 14 7 3 8 25 25 8 4 3 1 2 4 3 4 7 7 6 5 5 5 4 7 6 5 11 21 20 19 17 17 15 11 11 13 16 16 15 15 16 15 16 17
18 18 19 22 24 27 27 30 32 25 18 10 4 3 14 27 5 1 2 2 3 3 4 4 9 7 5 8 6 5 3 3 4 5 6 6 8 12 16 15 11 10 10 10 11 12 10 15 15 14 14 16 16 16
20 20 22 25 28 30 36 40 25 14 9 12 20 13 7 3 3 4 4 3 4 5 6 6 6 10 5 3 5 4 3 3 5 5 3 4 10 10 8 9 7 8 8 9 12 16 18 17 16 14 15 15 17 22
20 20 22 24 27 40 32 14 28 35 36 20 8 3 1 1 4 7 7 4 5 5 6 7 7 5 3 4 4 4 5 5 4 3 4 6 8 5 7 5 7 7 9 10 14 18 20 18 21 17 16 24 25 24
19 18 18 17 28 21 25 38 36 27 13 3 4 5 5 5 6 4 7 5 4 6 10 9 6 4 3 5 3 4 4 2 4 5 13 4 2 4 4 5 7 9 9 11 13 13 13 13 13 17 18 22 25 21
17 15 13 10 16 11 9 17 14 14 5 3 4 5 4 4 3 5 5 6 5 9 9 5 4 4 4 4 3 3 4 6 6 8 6 3 2 1 4 5 7 9 10 11 11 11 12 14 11 15 19 22 25 24
13 11 6 5 7 6 3 6 2 2 2 2 2 3 5 8 6 6 6 7 5 6 5 3 3 4 3 3 5 7 4 6 4 5 4 1 3 5 6 7 9 11 12 12 11 13 14 14 12 16 22 25 24 19
9 4 2 4 3 9 10 3 7 4 2 3 2 2 1 5 7 5 7 7 7 6 3 2 5 4 3 3 4 4 12 11 8 7 3 4 5 8 10 10 10 11 11 12 14 16 15 13 13 15 12 16 17 15
10 5 6 9 1 9 4 3 2 1 3 2 1 4 2 3 6 5 4 7 5 4 3 2 2 4 4 4 8 6 5 5 7 7 6 5 8 10 9 10 10 13 12 14 15 15 14 9 9 8 9 15 16 9
13 9 12 11 4 3 2 2 3 2 2 2 2 2 1 3 3 4 5 7 1 3 2 2 3 4 6 6 7 5 5 4 5 6 6 9 12 11 11 11 12 14 13 12 11 9 11 10 10 13 11 11 7 9
15 13 13 11 4 2 2 2 2 0 1 2 2 3 1 2 4 4 4 6 4 2 4 4 5 6 7 6 4 4 5 5 5 7 8 7 8 8 9 9 9 13 13 11 10 9 10 8 9 11 11 11 10 7
18 15 14 11 2 4 2 2 1 1 2 1 2 2 2 2 3 4 4 5 4 3 5 8 7 7 9 7 11 7 7 7 8 8 9 8 6 10 11 11 10 11 8 5 5 5 8 7 12 15 15 14 12 11
13 19 7 3 2 1 2 2 1 2 2 2 1 2 2 3 4 5 5 5 4 6 5 6 7 8 9 10 9 13 13 13 14 13 12 12 8 7 7 8 7 6 5 7 8 6 9 12 12 15 15 16 14 14
21 10 4 3 3 1 2 1 1 2 2 2 1 2 2 3 2 4 4 5 5 6 8 8 11 15 11 15 14 14 15 15 8 8 9 10 11 11 10 10 7 4 5 8 11 11 10 15 13 13 15 16 12 14
15 3 3 2 1 3 3 2 2 2 3 2 2 3 3 3 4 3 4 3 5 5 6 9 7 7 8 10 8 8 11 9 9 10 10 8 6 6 6 7 6 7 8 8 8 10 13 13 13 12 13 14 14 12
4 2 2 3 1 4 4 5 4 4 3 5 4 3 3 4 4 4 3 3 6 6 6 6 6 6 7 7 7 6 8 7 5 5 6 6 7 6 5 5 5 7 7 8 10 11 11 14 11 11 11 13 13 14
3 2 2 5 4 5 5 5 6 6 4 4 5 2 3 3 3 5 3 2 3 3 3 4 4 4 4 5 5 4 4 3 6 4 6 4 4 5 5 5 4 5 5 12 14 13 12 14 13 10 11 13 15 15
3 3 3 2 2 3 3 3 4 3 4 5 3 5 4 3 5 3 2 0 2 2 2 3 4 4 4 4 5 5 5 5 6 6 6 6 6 5 7 6 6 7 11 14 14 14 12 16 15 11 10 13 13 14
1 4 5 7 3 4 3 3 4 5 4 3 3 6 4 5 2 2 2 3 4 6 6 4 3 3 4 4 5 6 6 5 8 9 8 5 2 1 3 4 7 12 11 11 13 13 13 15 17 16 13 13 13 13
3 4 4 3 3 3 5 5 4 4 3 5 3 4 3 1 2 1 1 4 8 7 5 4 1 4 2 1 2 3 5 6 5 3 4 3 2 1 10 11 11 12 13 15 15 15 15 17 20 17 15 13 11 9
3 5 3 5 4 6 4 6 3 2 1 3 5 1 2 1 1 2 3 3 6 4 4 2 3 4 3 3 3 3 3 5 6 5 3 3 5 10 11 12 13 15 16 16 16 16 15 13 19 14 10 9 7 7
4 5 3 5 4 3 2 1 1 2 2 3 4 6 7 1 2 1 2 2 2 1 0 2 3 4 5 5 4 3 1 3 6 7 6 7 8 10 12 15 16 15 16 16 16 15 16 15 14 13 8 5 4 4
5 6 3 3 2 2 2 2 2 2 3 3 2 1 2 3 2 2 3 2 0 2 4 4 4 4 6 4 2 2 3 6 8 10 10 9 10 13 15 14 12 14 15 16 15 14 13 14 13 11 4 4 3 4
1 2 1 1 2 3 1 1 1 1 1 1 1 1 1 1 0 2 1 4 3 3 3 4 6 6 4 4 3 3 4 9 10 9 8 10 10 13 14 13 14 14 15 15 13 13 11 11 11 11 5 3 3 2
Wind_Direction
282 289 293 293 311 316 315 305 287 307 257 231 217 210 205 212 199 193 197 196 188 184 192 203 203 210 192 198 183 119 164 195 185 224 253 269 282 300 283 274 288 286 274 252 251 242 252 303 169 232 61 118 144 156
283 282 284 290 287 291 294 298 292 267 283 289 262 216 211 208 198 194 207 196 200 179 272 215 213 213 216 225 214 166 259 159 190 234 248 289 293 291 278 282 289 263 251 280 239 274 277 336 330 326 326 234 179 182
275 277 279 285 285 282 288 291 285 301 308 314 312 229 271 208 200 196 200 186 188 215 249 222 216 223 224 227 220 201 225 240 215 231 275 258 260 287 273 289 300 292 342 296 274 272 258 270 256 280 279 281 172 236
275 272 272 272 272 275 276 281 281 284 295 308 309 306 263 220 212 200 197 182 176 135 235 240 202 224 223 225 228 228 230 207 217 108 229 260 257 236 280 297 291 291 286 275 283 271 271 261 254 276 253 244 247 261
281 278 282 283 282 279 279 278 279 283 288 289 289 279 285 265 259 233 207 190 189 178 206 222 166 202 200 210 217 224 224 231 193 208 222 248 262 275 267 268 268 264 266 262 270 296 292 285 265 246 218 241 242 250
281 285 284 282 281 283 284 283 281 280 281 281 275 275 275 273 240 213 348 184 196 191 143 202 21 170 193 198 210 218 222 227 226 220 240 252 249 279 274 274 283 294 290 289 283 292 293 293 288 285 289 292 286 280
285 283 281 282 283 284 285 282 278 279 276 268 266 275 275 274 189 171 196 194 183 164 135 163 185 175 183 193 217 219 222 214 209 219 237 250 245 210 263 266 273 286 290 285 281 284 283 276 279 271 266 266 272 275
286 285 285 285 285 283 283 281 280 278 276 266 261 269 258 263 207 196 169 151 150 106 172 153 181 163 174 169 169 168 196 188 207 232 231 225 241 231 257 256 269 276 284 282 287 286 283 284 279 278 286 288 281 273
285 285 285 288 289 288 284 284 279 282 281 270 260 250 193 182 169 222 157 153 142 161 154 191 166 171 168 184 108 172 194 196 202 220 226 191 212 227 242 258 268 282 289 290 302 310 302 278 276 274 268 266 265 264
288 289 293 295 296 293 288 280 286 284 278 258 194 160 154 179 121 126 138 162 148 125 135 193 214 153 176 170 186 191 188 227 207 219 193 225 244 250 256 260 269 276 270 272 288 308 314 306 292 277 267 265 265 267
294 294 296 301 304 300 289 286 292 283 228 153 160 99 129 134 78 75 106 155 109 160 184 203 198 172 210 187 190 207 212 222 226 183 198 214 252 243 238 244 248 242 251 252 268 283 300 294 292 287 280 277 273 267
293 298 304 305 308 304 299 293 266 197 167 157 113 107 112 112 149 176 143 131 191 200 168 178 188 212 171 199 215 179 218 226 246 148 219 246 258 269 262 254 230 247 257 272 276 276 276 287 291 290 290 285 277 273
291 300 306 313 316 315 314 197 148 133 119 106 73 83 209 98 153 178 171 179 192 178 155 152 155 158 150 226 199 182 212 220 143 195 235 251 270 276 272 240 227 253 276 278 279 277 274 273 269 280 293 286 279 273
288 295 309 318 334 8 127 126 130 122 108 95 124 137 211 187 203 182 173 162 173 161 150 172 152 164 162 178 197 205 195 243 225 234 233 266 239 264 258 239 262 278 288 288 290 292 287 279 279 285 291 287 280 269
281 289 301 303 340 327 50 86 108 102 82 113 180 193 189 117 108 120 93 120 147 146 157 137 144 166 166 164 196 234 186 227 224 239 268 355 69 232 254 278 293 296 295 294 300 298 292 288 287 287 289 293 287 277
272 288 266 247 298 192 219 358 34 93 73 78 123 161 149 131 132 154 141 121 143 150 155 173 149 163 167 182 198 208 223 225 244 251 282 334 263 268 271 282 288 294 294 292 294 294 290 288 287 284 295 293 283 277
247 237 133 192 187 129 152 19 354 48 99 163 111 126 125 121 135 136 159 151 158 165 166 159 174 174 108 201 219 238 235 253 279 295 289 261 267 282 293 296 294 290 290 291 293 293 290 291 284 287 285 303 307 287
222 215 169 154 158 118 68 54 107 65 88 69 98 134 84 81 122 129 147 146 162 192 170 185 126 197 215 232 241 264 296 312 290 282 280 276 280 286 293 290 292 293 293 293 292 289 290 277 280 288 300 305 310 321
204 190 170 153 146 98 76 35 356 76 73 100 98 94 101 121 90 117 136 168 130 176 162 191 219 223 235 254 266 254 255 283 295 294 288 282 280 279 278 290 295 292 291 294 292 286 291 278 269 290 302 304 298 306
197 185 169 163 153 97 107 94 321 67 127 99 130 170 188 119 128 170 153 161 169 184 204 225 219 243 233 247 246 268 295 297 287 287 285 282 282 273 276 293 290 294 299 296 290 278 278 293 288 304 305 301 297 303
182 176 156 159 75 53 73 140 97 3 95 111 96 203 152 162 176 173 170 168 180 217 235 234 244 252 248 258 274 260 270 271 268 269 276 282 287 294 291 291 291 294 294 298 299 300 279 304 314 312 314 305 305 302
151 150 112 73 85 48 87 10 54 136 158 84 171 261 211 196 196 201 146 195 227 226 222 244 250 260 266 262 263 263 264 266 270 269 264 268 268 274 284 306 303 293 299 302 303 303 311 322 328 311 300 302 304 298
133 130 87 106 106 80 95 277 191 179 144 183 195 217 221 205 177 135 221 221 241 237 237 244 257 263 267 275 278 273 264 262 264 264 268 266 268 273 282 286 279 275 287 299 309 307 321 321 314 305 298 296 297 297
128 82 112 117 123 124 148 158 187 185 170 193 192 230 215 196 157 223 246 233 235 239 235 239 245 256 262 257 260 268 274 267 260 268 263 258 265 276 278 275 276 286 296 303 312 303 305 306 310 305 302 300 297 292
107 98 138 120 142 136 163 171 188 194 225 201 204 229 196 184 200 221 236 248 241 240 246 249 247 248 261 273 278 283 288 253 250 262 271 253 272 284 288 266 266 284 296 306 305 308 312 314 302 299 296 297 295 298
99 153 170 156 157 179 181 173 197 206 179 204 220 202 180 203 228 241 223 251 247 268 260 247 253 254 252 260 288 291 280 285 267 264 268 260 278 294 297 289 282 296 299 316 310 310 316 312 303 285 287 293 295 295
133 164 180 234 178 169 186 187 180 180 193 202 197 174 179 222 235 243 262 290 299 356 315 304 290 281 290 306 310 309 302 280 249 275 301 298 291 280 269 283 302 312 314 306 303 308 309 303 303 300 273 278 278 281
108 171 170 174 189 190 168 194 198 205 200 190 179 192 202 215 254 50 10 12 345 322 304 292 277 275 292 298 312 317 314 324 302 283 278 268 273 19 26 345 323 321 321 310 310 310 308 298 301 302 286 275 264 270
190 168 135 164 171 189 217 209 220 212 198 190 202 212 227 213 44 15 357 336 322 309 307 316 312 316 293 284 328 9 14 3 344 342 339 324 328 54 351 339 330 325 320 316 317 315 307 305 316 306 298 284 276 275
192 173 185 174 181 214 225 201 227 146 197 298 282 233 224 229 146 338 320 326 303 312 324 337 3 21 18 0 349 355 34 33 31 24 350 342 324 319 324 323 317 316 316 313 314 318 315 326 328 318 302 288 273 266
145 186 213 203 230 227 242 173 161 194 178 229 237 256 263 284 145 104 21 332 327 312 353 34 32 25 13 8 4 353 30 32 10 359 341 317 317 317 316 316 314 315 314 314 317 321 317 320 316 310 312 309 309 265
188 199 211 235 214 114 168 220 198 219 189 213 200 195 175 201 227 128 14 10 117 84 49 24 356 336 339 326 300 316 328 331 333 333 336 327 320 317 322 325 329 325 321 319 317 317 313 315 314 319 324 334 343 5
222 216 200 254 221 174 112 246 149 151 206 177 151 183 204 277 229 95 67 51 64 55 15 340 324 318 324 313 287 313 332 330 333 335 337 333 330 332 338 340 335 331 329 322 323 324 323 328 328 339 3 8 36 38